Port Charlotte Middle School FL US WEATHERSTEM current weather conditions

sailwx.info

Wind from 310 at 4 knots gusting 13

Air temperature 18.6° C
Dewpoint 0.6° C

Last reported at 2020-Jan-20 21:00 UTC.
Time now 2020-Jan-20 21:50 UTC

Location: N 27°00' W 082°05'.
View on Google Maps.

See reports from other nearby stations

  
Tides and Currents Weather Stations Pressure Air Temp Water Temp Dewpoint Dewpoint Depression Visibility Wind Speed Wind Dir Waves Ship Positions
date/time (UTC)wind fromknots sea level pressurealtimeterstation pressurevisibilityair tempwater tempwave heightnotes
2020-Jan-20 21:00 310 4 gusting 13 18.6
2020-Jan-20 20:50 305 7 gusting 11 18.8
2020-Jan-20 20:40 305 4 gusting 10 18.9
2020-Jan-20 20:30 315 6 gusting 10 19.1
2020-Jan-20 20:20 309 6 gusting 12 18.9
2020-Jan-20 20:00 325 7 gusting 11 18.7
2020-Jan-20 19:50 320 6 gusting 11 18.7
2020-Jan-20 19:40 317 4 gusting 12 18.7
2020-Jan-20 19:30 273 6 gusting 10 18.7
2020-Jan-20 19:20 253 4 gusting 9 18.6
2020-Jan-20 19:00 324 4 gusting 9 18.5
2020-Jan-20 18:50 336 3 gusting 9 18.4
2020-Jan-20 18:40 346 8 gusting 10 18.3
2020-Jan-20 18:30 338 8 gusting 12 17.8
2020-Jan-20 18:20 300 6 gusting 10 17.2
2020-Jan-20 18:00 324 3 gusting 10 17.2
2020-Jan-20 17:50 315 2 gusting 10 17.0
2020-Jan-20 17:40 284 3 gusting 11 16.8
2020-Jan-20 17:30 336 5 gusting 9 16.8
2020-Jan-20 17:20 306 4 gusting 10 16.2
2020-Jan-20 17:00 302 6 gusting 10 16.1
2020-Jan-20 16:50 325 3 gusting 10 15.9
2020-Jan-20 16:40 333 9 gusting 10 16.0
2020-Jan-20 16:30 313 5 gusting 9 15.8
2020-Jan-20 16:20 329 3 gusting 10 15.1
2020-Jan-20 16:00 340 7 gusting 10 14.9
2020-Jan-20 15:50 011 6 gusting 10 14.3
2020-Jan-20 15:40 019 3 gusting 9 13.9
2020-Jan-20 15:20 327 3 gusting 8 13.6
2020-Jan-20 15:00 005 4 gusting 11 12.7
2020-Jan-20 14:40 317 4 gusting 11 12.2
2020-Jan-20 14:30 336 5 gusting 12 12.1
2020-Jan-20 14:20 355 7 gusting 13 11.8
2020-Jan-20 14:00 321 3 gusting 12 11.5
2020-Jan-20 13:50 360 12 gusting 13 11.3
2020-Jan-20 13:40 355 10 gusting 13 11.1
2020-Jan-20 13:30 329 4 gusting 9 10.8
2020-Jan-20 13:20 323 7 gusting 9 10.9
2020-Jan-20 13:00 329 7 gusting 13 11.3
2020-Jan-20 12:50 342 4 gusting 12 11.7
2020-Jan-20 12:40 318 7 gusting 13 12.0
2020-Jan-20 12:30 321 2 gusting 13 12.2
2020-Jan-20 12:20 319 10 gusting 13 12.5
2020-Jan-20 12:00 329 6 gusting 12 13.4
2020-Jan-20 11:40 284 5 gusting 15 14.3
2020-Jan-20 11:30 340 4 gusting 13 14.7
2020-Jan-20 11:20 319 5 gusting 9 15.2
2020-Jan-20 11:00 325 5 gusting 9 15.9
2020-Jan-20 10:50 345 4 gusting 9 16.1
2020-Jan-20 10:20 336 7 gusting 10 16.7
2020-Jan-20 10:00 335 7 gusting 8 16.8
2020-Jan-20 09:50 346 4 gusting 7 16.9
2020-Jan-20 09:40 306 2 gusting 7 16.9
2020-Jan-20 09:30 324 2 gusting 7 17.1
2020-Jan-20 09:20 320 1 gusting 8 17.2
2020-Jan-20 09:00 338 5 gusting 11 17.4
2020-Jan-20 08:50 331 3 gusting 7 17.6
2020-Jan-20 08:40 290 3 gusting 8 17.7
2020-Jan-20 08:20 317 4 gusting 7 17.9
2020-Jan-20 08:00 310 2 gusting 10 18.0
2020-Jan-20 07:50 312 1 gusting 8 18.1
2020-Jan-20 07:40 325 2 gusting 8 18.3
2020-Jan-20 07:30 346 3 gusting 9 18.4
2020-Jan-20 07:20 317 3 gusting 6 18.4
2020-Jan-20 07:00 342 6 gusting 7 18.6
2020-Jan-20 06:50 333 3 gusting 8 18.7
2020-Jan-20 06:40 238 5 gusting 8 18.9
2020-Jan-20 06:30 331 7 gusting 8 19.3
2020-Jan-20 06:20 305 6 gusting 7 19.6
2020-Jan-20 06:00 319 2 gusting 7 19.7
2020-Jan-20 05:50 307 2 gusting 6 19.8
2020-Jan-20 05:40 277 0 gusting 6 19.8
2020-Jan-20 05:30 282 1 gusting 2 19.8
2020-Jan-20 05:20 281 1 gusting 2 19.9
2020-Jan-20 05:10 20.0
2020-Jan-20 05:00 278 0 gusting 2 20.1
2020-Jan-20 04:40 292 1 gusting 3 20.2
2020-Jan-20 04:30 306 2 gusting 3 20.3
2020-Jan-20 04:20 285 2 gusting 3 20.3
2020-Jan-20 04:00 269 0 gusting 5 20.5
2020-Jan-20 03:50 302 2 gusting 4 20.6
2020-Jan-20 03:40 302 0 gusting 3 20.8
2020-Jan-20 03:30 306 3 gusting 5 20.9
2020-Jan-20 03:20 285 1 gusting 4 21.0
2020-Jan-20 03:00 259 0 gusting 2 21.2
2020-Jan-20 02:50 259 0 gusting 2 21.3
2020-Jan-20 02:40 248 0 gusting 2 21.3
2020-Jan-20 02:30 235 0 gusting 3 21.4
2020-Jan-20 02:20 246 2 gusting 2 21.5
2020-Jan-20 02:00 246 0 gusting 2 21.6
2020-Jan-20 01:50 246 0 gusting 2 21.6
2020-Jan-20 01:40 245 0 gusting 2 21.7
2020-Jan-20 01:30 271 1 gusting 5 21.7
2020-Jan-20 01:20 21.8
2020-Jan-20 01:00 243 0 gusting 5 22.0
2020-Jan-20 00:50 237 3 gusting 6 22.1
2020-Jan-20 00:40 265 2 gusting 6 22.2
2020-Jan-20 00:30 244 3 gusting 5 22.2
2020-Jan-20 00:20 227 2 gusting 6 22.2
2020-Jan-20 00:00 209 0 gusting 6 22.3
2020-Jan-19 23:50 211 5 gusting 6 22.3
2020-Jan-19 23:40 207 4 gusting 6 22.4
2020-Jan-19 23:30 207 2 gusting 6 22.5
2020-Jan-19 23:20 195 4 gusting 6 22.6
2020-Jan-19 23:00 185 2 gusting 5 22.7
2020-Jan-19 22:50 186 2 gusting 6 22.8
2020-Jan-19 22:40 221 4 gusting 6 22.9
2020-Jan-19 22:30 186 3 gusting 6 23.0
2020-Jan-19 22:20 192 3 gusting 6 23.1
2020-Jan-19 22:00 182 2 gusting 7 23.3
2020-Jan-19 21:50 171 6 gusting 8 23.4
2020-Jan-19 21:40 189 4 gusting 8 23.5
2020-Jan-19 21:30 169 4 gusting 7 23.6
2020-Jan-19 21:20 188 6 gusting 8 23.8
2020-Jan-19 21:10 198 4 gusting 10 24.1
2020-Jan-19 21:00 175 6 gusting 8 24.2
2020-Jan-19 20:50 196 7 gusting 13 24.1
2020-Jan-19 20:40 180 5 gusting 10 24.4
2020-Jan-19 20:30 214 6 gusting 12 24.8
2020-Jan-19 20:20 186 4 gusting 10 24.6
2020-Jan-19 20:00 194 6 gusting 11 24.7
2020-Jan-19 19:50 149 4 gusting 13 24.6
2020-Jan-19 19:30 208 5 gusting 11 24.4
2020-Jan-19 19:10 182 2 gusting 8 24.2
2020-Jan-19 19:00 184 4 gusting 8 24.1
2020-Jan-19 18:50 188 10 gusting 10 24.2
2020-Jan-19 18:40 173 6 gusting 9 24.2
2020-Jan-19 18:30 194 8 gusting 11 24.2
2020-Jan-19 18:20 190 10 gusting 11 24.3
2020-Jan-19 18:10 217 7 gusting 12 24.6
2020-Jan-19 18:00 157 6 gusting 11 24.8
2020-Jan-19 17:40 184 6 gusting 9 24.8
2020-Jan-19 17:30 203 8 gusting 11 24.7
2020-Jan-19 17:20 203 7 gusting 10 24.6
2020-Jan-19 17:10 196 7 gusting 9 25.0
2020-Jan-19 17:00 166 5 gusting 10 25.2
2020-Jan-19 16:50 165 6 gusting 13 25.3
2020-Jan-19 16:40 160 5 gusting 9 25.1
2020-Jan-19 16:30 210 9 gusting 9 25.4
2020-Jan-19 16:20 188 5 gusting 8 25.0
2020-Jan-19 16:10 177 7 gusting 12 24.6
2020-Jan-19 15:50 180 1 gusting 8 24.4
2020-Jan-19 15:40 138 6 gusting 7 24.3
2020-Jan-19 14:20 121 4 gusting 6 20.6
2020-Jan-19 14:10 121 4 gusting 6 20.6
2020-Jan-19 14:00 101 0 gusting 5 20.3
2020-Jan-19 13:50 134 6 gusting 6 19.9
2020-Jan-19 13:40 130 3 gusting 7 19.6
2020-Jan-19 13:30 142 1 gusting 6 19.1
2020-Jan-19 13:20 140 2 gusting 6 18.7
2020-Jan-19 13:10 144 1 gusting 6 18.2
2020-Jan-19 13:00 130 1 gusting 6 18.2
2020-Jan-19 12:50 140 2 gusting 6 18.0
2020-Jan-19 12:40 142 4 gusting 6 17.8
2020-Jan-19 12:30 136 3 gusting 7 17.8
2020-Jan-19 12:20 134 4 gusting 7 17.7
2020-Jan-19 12:10 144 3 gusting 6 17.7
2020-Jan-19 12:00 140 2 gusting 6 17.7
2020-Jan-19 11:50 123 3 gusting 6 17.7
2020-Jan-19 11:40 144 2 gusting 6 17.7
2020-Jan-19 11:30 134 4 gusting 6 17.7
2020-Jan-19 11:20 126 2 gusting 7 17.7
2020-Jan-19 11:10 106 5 gusting 6 17.7
2020-Jan-19 11:00 137 1 gusting 6 17.7
2020-Jan-19 10:50 125 1 gusting 6 17.8
2020-Jan-19 10:40 104 1 gusting 6 17.8
2020-Jan-19 10:30 127 1 gusting 6 17.9
2020-Jan-19 10:20 103 1 gusting 6 17.9
2020-Jan-19 10:10 134 2 gusting 6 17.9
2020-Jan-19 10:00 147 3 gusting 6 17.9
2020-Jan-19 09:50 123 3 gusting 6 17.9
2020-Jan-19 09:40 143 2 gusting 6 17.9
2020-Jan-19 09:20 138 1 gusting 6 17.9
2020-Jan-19 09:10 117 2 gusting 6 17.9
2020-Jan-19 09:00 137 2 gusting 6 17.9
2020-Jan-19 08:50 140 3 gusting 6 17.9
2020-Jan-19 08:40 124 2 gusting 6 17.9
2020-Jan-19 08:30 123 2 gusting 6 17.9
2020-Jan-19 08:20 113 1 gusting 5 17.9
2020-Jan-19 08:10 107 1 gusting 3 17.9
2020-Jan-19 08:00 111 0 gusting 6 17.9
2020-Jan-19 07:50 121 0 gusting 5 17.9
2020-Jan-19 07:40 138 2 gusting 6 17.9
2020-Jan-19 07:20 121 1 gusting 6 17.9
2020-Jan-19 07:10 119 1 gusting 5 17.9
2020-Jan-19 07:00 089 0 gusting 4 17.9
2020-Jan-19 06:50 111 2 gusting 6 17.9
2020-Jan-19 06:40 128 2 gusting 5 17.9
2020-Jan-19 06:20 128 0 gusting 3 18.0
2020-Jan-19 06:10 117 0 gusting 2 18.2
2020-Jan-19 06:00 117 1 gusting 2 18.2
2020-Jan-19 05:50 094 0 gusting 3 18.3
2020-Jan-19 05:40 18.3
2020-Jan-19 05:30 098 2 gusting 3 18.4
2020-Jan-19 05:20 059 0 gusting 4 18.4
2020-Jan-19 05:10 101 0 gusting 3 18.6
2020-Jan-19 05:00 101 0 gusting 3 18.6
2020-Jan-19 04:50 109 2 gusting 6 18.5
2020-Jan-19 04:40 090 2 gusting 6 18.6
2020-Jan-19 04:30 095 3 gusting 5 18.6
2020-Jan-19 04:20 107 3 gusting 4 18.5
2020-Jan-19 04:10 093 2 gusting 5 18.4
2020-Jan-19 04:00 084 4 gusting 4 18.4
2020-Jan-19 03:50 090 1 gusting 3 18.3
2020-Jan-19 03:40 089 1 gusting 2 18.3
2020-Jan-19 03:30 089 0 gusting 3 18.4
2020-Jan-19 03:20 083 2 gusting 3 18.4
2020-Jan-19 03:10 102 2 gusting 2 18.6
2020-Jan-19 03:00 102 0 gusting 1 18.6
2020-Jan-19 02:50 18.8
2020-Jan-19 02:40 18.9
2020-Jan-19 02:30 102 2 gusting 3 18.9
2020-Jan-19 02:20 102 0 gusting 2 19.1
2020-Jan-19 02:10 19.3
2020-Jan-19 02:00 102 1 gusting 2 19.4
2020-Jan-19 01:50 102 1 gusting 2 19.6
2020-Jan-19 01:40 103 2 gusting 2 19.8
2020-Jan-19 01:30 20.0
2020-Jan-19 01:20 103 0 gusting 2 20.2
2020-Jan-19 01:10 103 0 gusting 3 20.6
2020-Jan-19 01:00 20.7
2020-Jan-19 00:50 20.9
2020-Jan-19 00:40 071 0 gusting 2 21.1
2020-Jan-19 00:30 101 1 gusting 2 21.3
2020-Jan-19 00:20 101 0 gusting 1 21.7
2020-Jan-19 00:10 22.1
2020-Jan-19 00:00 101 1 gusting 1 22.2
2020-Jan-18 23:50 101 0 gusting 1 22.4
2020-Jan-18 23:40 101 0 gusting 1 22.8
2020-Jan-18 23:30 23.1
2020-Jan-18 23:20 101 0 gusting 2 23.4
2020-Jan-18 23:10 101 0 gusting 2 23.7
2020-Jan-18 23:00 101 1 gusting 3 23.9
2020-Jan-18 22:50 100 2 gusting 3 24.3
2020-Jan-18 22:40 101 1 gusting 3 24.6
2020-Jan-18 22:30 093 2 gusting 6 24.8
2020-Jan-18 22:20 096 2 gusting 7 25.0
2020-Jan-18 22:10 124 3 gusting 6 25.4
2020-Jan-18 22:00 111 3 gusting 8 25.4
2020-Jan-18 21:50 110 5 gusting 6 25.7
2020-Jan-18 21:40 126 3 gusting 6 25.7
2020-Jan-18 21:30 145 5 gusting 9 25.8
2020-Jan-18 21:20 111 3 gusting 8 25.8
2020-Jan-18 21:10 115 6 gusting 9 26.0
2020-Jan-18 21:00 118 1 gusting 9 26.1